Weather History for Edinburg, TX

Change the Weather History Date:

Monday, August 12, 2013

  Actual Average (KMFE) Record (KMFE)
Temperature  
Mean Temperature 88 °F 88 °F  
Max Temperature 98 °F 99 °F 104 °F (2009)
Min Temperature 77 °F 77 °F 68 °F (1950)
Degree Days  
Heating Degree Days 0 0  
Month to date heating degree days 0  
Since 1 June heating degree days 0  
Since 1 July heating degree days 0  
Cooling Degree Days 22 23  
Month to date cooling degree days 275  
Year to date cooling degree days 2832  
Since 1 June cooling degree days 1577  
Growing Degree Days 38 (Base 50)    
Moisture  
Dew Point 71 °F    
Average Humidity 62    
Maximum Humidity 90    
Minimum Humidity 33    
Precipitation  
Precipitation 0.05 in 0.05 in 2.57 in (1960)
Month to date precipitation 0.57  
Year to date precipitation 11.93  
Sea Level Pressure  
Sea Level Pressure 30.00 in    
Wind  
Wind Speed 7 mph (SE)    
Max Wind Speed 17 mph    
Max Gust Speed 23 mph    
Visibility 7 miles    
Events Rain    
T = Trace of Precipitation, MM = Missing Value Source: NWS Daily Summary

Daily Weather History Graph

Daily Weather History Graph

Search for Another Location

Airport:

Trip Planner

Search our weather history database for the weather conditions in past years. The results will help you decide how hot, cold, wet, or windy it might be!

Date:

Astronomy

Aug. 12, 2013 Rise Set
Actual Time 7:03 AM CDT 8:11 PM CDT
Civil Twilight 6:39 AM CDT 8:35 PM CDT
Nautical Twilight 6:10 AM CDT 9:04 PM CDT
Astronomical Twilight 5:40 AM CDT 9:33 PM CDT
Moon 12:16 PM CDT (8/12) 11:46 PM CDT (8/12)
Length of Visible Light 13h 56m
Length of Day
13h 07m
Waxing Crescent, 31% of the Moon is Illuminated
Aug 12
Waxing Crescent
Aug 14
First Quarter
Aug 20
Full
Aug 28
Last Quarter
Sep 5
New

Hourly Weather History & Observations

Time (CDT) Temp. Heat Index Dew Point Humidity Pressure Visibility Wind Dir Wind Speed Gust Speed Precip Events Conditions
2:15 AM 77.9 °F - 73.9 °F 88% 30.03 in 7.0 mi SE 5.8 mph - N/A   Scattered Clouds
2:35 AM 77.9 °F - 73.8 °F 87% 30.03 in 5.0 mi SE 3.5 mph - N/A   Clear
2:55 AM 77.9 °F - 73.9 °F 88% 30.03 in 7.0 mi SE 4.6 mph - N/A   Clear
3:15 AM 77.9 °F - 73.8 °F 87% 30.02 in 7.0 mi ESE 3.5 mph - N/A   Clear
3:35 AM 77.7 °F - 73.8 °F 88% 30.02 in 7.0 mi Calm Calm - N/A   Clear
3:55 AM 77.9 °F - 73.8 °F 87% 30.01 in 7.0 mi SE 3.5 mph - N/A   Clear
4:15 AM 77.5 °F - 73.6 °F 88% 30.02 in 7.0 mi Calm Calm - N/A   Clear
4:35 AM 77.5 °F - 73.8 °F 88% 30.02 in 7.0 mi Calm Calm - N/A   Clear
4:55 AM 77.5 °F - 73.8 °F 88% 30.02 in 7.0 mi Calm Calm - N/A   Clear
5:15 AM 77.2 °F - 73.6 °F 89% 30.01 in 7.0 mi SSE 3.5 mph - N/A   Clear
5:35 AM 77.0 °F - 73.4 °F 89% 30.01 in 7.0 mi Calm Calm - N/A   Clear
5:55 AM 77.2 °F - 73.6 °F 89% 30.01 in 5.0 mi SSE 3.5 mph - N/A   Clear
6:15 AM 77.0 °F - 73.4 °F 89% 30.01 in 7.0 mi SE 3.5 mph - N/A   Clear
6:35 AM 77.0 °F - 73.4 °F 89% 30.01 in 7.0 mi Calm Calm - N/A   Clear
6:55 AM 77.0 °F - 73.4 °F 89% 29.99 in 7.0 mi Calm Calm - N/A   Clear
7:15 AM 77.0 °F - 73.4 °F 89% 29.99 in 5.0 mi NNW 3.5 mph - N/A   Clear
7:35 AM 77.2 °F - 73.9 °F 90% 30.00 in 5.0 mi Calm Calm - N/A   Clear
7:55 AM 77.7 °F - 74.3 °F 89% 30.01 in 5.0 mi ENE 4.6 mph - 0.05 in Rain Light Rain
8:15 AM 78.4 °F - 75.0 °F 89% 30.02 in 5.0 mi NE 4.6 mph - N/A   Clear
8:35 AM 78.6 °F - 75.0 °F 89% 30.03 in 5.0 mi NE 4.6 mph - N/A   Clear
9:15 AM 80.4 °F 86.0 °F 75.4 °F 85% 30.03 in 7.0 mi ESE 3.5 mph - N/A   Clear
9:35 AM 82.4 °F 89.5 °F 75.4 °F 79% 30.04 in 7.0 mi ESE 6.9 mph - N/A   Clear
9:55 AM 83.7 °F 91.7 °F 75.4 °F 76% 30.05 in 7.0 mi SE 10.4 mph - N/A   Clear
10:15 AM 85.8 °F 94.2 °F 74.5 °F 69% 30.05 in 7.0 mi SE 11.5 mph - N/A   Scattered Clouds
10:35 AM 87.1 °F 94.5 °F 73.2 °F 63% 30.05 in 7.0 mi SE 11.5 mph - N/A   Scattered Clouds
10:55 AM 87.8 °F 94.7 °F 72.5 °F 60% 30.05 in 5.0 mi ESE 10.4 mph - N/A   Haze
11:15 AM 88.2 °F 95.0 °F 72.3 °F 59% 30.05 in 7.0 mi SE 8.1 mph - N/A   Clear
11:35 AM 90.5 °F 95.5 °F 69.6 °F 50% 30.05 in 7.0 mi SE 13.8 mph - N/A   Scattered Clouds
11:55 AM 91.6 °F 94.8 °F 66.9 °F 44% 30.05 in 7.0 mi ESE 17.3 mph - N/A   Clear
12:15 PM 92.3 °F 94.7 °F 65.5 °F 41% 30.05 in 7.0 mi SSE 11.5 mph 20.7 mph N/A   Clear
12:35 PM 92.8 °F 95.6 °F 65.7 °F 41% 30.05 in 7.0 mi SE 15.0 mph 19.6 mph N/A   Clear
12:55 PM 93.0 °F 96.4 °F 66.9 °F 42% 30.05 in 7.0 mi SSE 11.5 mph 20.7 mph N/A   Clear
1:15 PM 93.7 °F 97.7 °F 67.3 °F 42% 30.04 in 7.0 mi SE 13.8 mph 20.7 mph N/A   Scattered Clouds
1:35 PM 94.1 °F 97.9 °F 67.3 °F 41% 30.03 in 10.0 mi South 12.7 mph - N/A   Scattered Clouds
1:55 PM 95.5 °F 99.4 °F 66.9 °F 39% 30.02 in 10.0 mi SSE 12.7 mph 23.0 mph N/A   Scattered Clouds
2:15 PM 96.3 °F 99.7 °F 66.4 °F 37% 30.02 in 10.0 mi South 13.8 mph 19.6 mph N/A   Scattered Clouds
2:35 PM 96.1 °F 99.3 °F 66.0 °F 37% 30.01 in 7.0 mi SE 15.0 mph 18.4 mph N/A   Scattered Clouds
2:55 PM 96.3 °F 100.2 °F 66.9 °F 38% 30.00 in 10.0 mi SE 12.7 mph 20.7 mph N/A   Scattered Clouds
3:15 PM 96.3 °F 100.2 °F 66.9 °F 38% 29.99 in 7.0 mi SE 11.5 mph 21.9 mph N/A   Scattered Clouds
3:35 PM 98.1 °F 103.0 °F 67.8 °F 37% 29.99 in 10.0 mi SE 16.1 mph 21.9 mph N/A   Scattered Clouds
3:55 PM 97.2 °F 101.9 °F 67.8 °F 38% 29.98 in 7.0 mi ESE 11.5 mph 17.3 mph N/A   Scattered Clouds
4:15 PM 95.7 °F 100.9 °F 68.4 °F 41% 29.97 in 7.0 mi SSE 13.8 mph 20.7 mph N/A   Scattered Clouds
4:35 PM 97.0 °F 101.6 °F 67.6 °F 38% 29.97 in 7.0 mi SSE 11.5 mph - N/A   Scattered Clouds
4:55 PM 97.2 °F 100.2 °F 65.3 °F 35% 29.96 in 7.0 mi SE 12.7 mph 17.3 mph N/A   Scattered Clouds
5:15 PM 97.5 °F 101.4 °F 66.6 °F 36% 29.95 in 7.0 mi ESE 15.0 mph 19.6 mph N/A   Scattered Clouds
5:35 PM 97.2 °F 100.2 °F 65.5 °F 35% 29.95 in 7.0 mi ESE 15.0 mph 21.9 mph N/A   Scattered Clouds
6:15 PM 96.4 °F 98.4 °F 63.5 °F 34% 29.94 in 7.0 mi SE 10.4 mph 21.9 mph N/A   Clear
6:35 PM 96.4 °F 97.9 °F 63.1 °F 33% 29.94 in 10.0 mi ESE 15.0 mph 18.4 mph N/A   Clear
6:55 PM 95.5 °F 97.9 °F 64.6 °F 36% 29.94 in 10.0 mi SE 12.7 mph - N/A   Clear
7:15 PM 94.6 °F 98.3 °F 66.9 °F 40% 29.94 in 7.0 mi SE 10.4 mph - N/A   Clear
7:35 PM 93.6 °F 97.4 °F 67.1 °F 42% 29.94 in 7.0 mi SE 12.7 mph - N/A   Clear
7:55 PM 92.3 °F 96.5 °F 68.0 °F 45% 29.94 in 10.0 mi SE 12.7 mph - N/A   Clear
8:15 PM 90.9 °F 95.3 °F 68.7 °F 48% 29.94 in 7.0 mi SE 11.5 mph - N/A   Clear
8:35 PM 89.6 °F 94.3 °F 69.3 °F 51% 29.95 in 10.0 mi SE 11.5 mph - N/A   Clear
8:55 PM 88.7 °F 93.5 °F 69.8 °F 53% 29.96 in 10.0 mi SE 10.4 mph - N/A   Clear
9:15 PM 87.8 °F 94.3 °F 71.8 °F 59% 29.97 in 10.0 mi ESE 10.4 mph - N/A   Clear
9:35 PM 86.5 °F 94.2 °F 73.6 °F 65% 29.98 in 10.0 mi ESE 9.2 mph - N/A   Clear
9:55 PM 85.6 °F 93.0 °F 73.8 °F 67% 29.98 in 7.0 mi ESE 11.5 mph 16.1 mph N/A   Clear
10:15 PM 85.1 °F 92.9 °F 74.3 °F 70% 29.99 in 10.0 mi ESE 9.2 mph - N/A   Clear
10:35 PM 84.6 °F 91.7 °F 73.9 °F 70% 30.00 in 7.0 mi SE 10.4 mph - N/A   Clear
10:55 PM 84.0 °F 91.2 °F 73.9 °F 72% 30.01 in 7.0 mi ESE 10.4 mph - N/A   Clear
11:15 PM 83.5 °F 90.3 °F 73.9 °F 73% 30.01 in 10.0 mi SE 11.5 mph - N/A   Clear